Willard, MO

9:37 PM CST on February 23, 2017 (GMT -0600)
Springfield-Branson Regional

Weather History for KSGF - March, 2014

Change the Weather History Date:

Sunday, March 2, 2014

  Actual Average Record
Temperature  
Mean Temperature 16 °F 42 °F  
Max Temperature 26 °F 53 °F 79 °F (1904)
Min Temperature 5 °F 31 °F 0 °F (1943)
Degree Days  
Heating Degree Days 49 23  
Month to date heating degree days 75 46  
Since 1 July heating degree days 4030 3639  
Cooling Degree Days 0 0  
Month to date cooling degree days 0 0  
Year to date cooling degree days 0 0  
Moisture  
Dew Point 10 °F    
Average Humidity 81    
Maximum Humidity 88    
Minimum Humidity 73    
Precipitation  
Precipitation 0.14 in 0.10 in 1.71 in (1945)
Month to date precipitation 0.14 0.20  
Year to date precipitation 1.93 5.19  
Snow  
Snow 1.00 in - - ()
Month to date snowfall 1.0  
Since 1 July snowfall 28.4  
Snow Depth 1.00 in    
Sea Level Pressure  
Sea Level Pressure 30.25 in    
Wind  
Wind Speed 18 mph (North)    
Max Wind Speed 29 mph    
Max Gust Speed 36 mph    
Visibility 3 miles    
Events Rain , Snow    
T = Trace of Precipitation, MM = Missing Value Source: NWS Daily Summary

Daily Weather History Graph

Daily Weather History Graph

Search for Another Location

Airport or City:

Trip Planner

Search our weather history database for the weather conditions in past years. The results will help you decide how hot, cold, wet, or windy it might be!

Date:

Astronomy

Mar. 02, 2014 Rise Set
Actual Time 6:43 AM CST 6:08 PM CST
Civil Twilight 6:17 AM CST 6:34 PM CST
Nautical Twilight 5:46 AM CST 7:04 PM CST
Astronomical Twilight 5:16 AM CST 7:35 PM CST
Moon 7:17 AM CST (3/2) 8:02 PM CST (3/2)
Length of Visible Light 12h 17m
Length of Day
11h 25m
Waxing Crescent, 3% of the Moon is Illuminated
Mar 2
Waxing Crescent
Mar 8
First Quarter
Mar 16
Full
Mar 23
Last Quarter
Mar 30
New

Hourly Weather History & Observations

Time (CST) Temp. Windchill Dew Point Humidity Pressure Visibility Wind Dir Wind Speed Gust Speed Precip Events Conditions
12:25 AM 26.1 °F 13.6 °F 21.9 °F 84% 30.13 in 5.0 mi NNE 16.1 mph - N/A   Overcast
12:52 AM 25.0 °F 11.3 °F 21.9 °F 88% 30.16 in 4.0 mi NNE 18.4 mph - N/A   Overcast
1:10 AM 25.0 °F 12.2 °F 21.9 °F 88% 30.13 in 2.5 mi NNE 16.1 mph - 0.00 in Rain Light Freezing Rain
1:38 AM 25.0 °F 12.6 °F 21.9 °F 88% 30.14 in 1.8 mi NNE 15.0 mph - 0.00 in Rain Light Freezing Rain
1:52 AM 25.0 °F 13.1 °F 21.9 °F 88% 30.16 in 1.2 mi North 13.8 mph - 0.02 in   Overcast
2:01 AM 25.0 °F 13.1 °F 21.9 °F 88% 30.14 in 1.8 mi North 13.8 mph - 0.00 in   Overcast
2:08 AM 25.0 °F 12.6 °F 21.9 °F 88% 30.13 in 2.5 mi North 15.0 mph - 0.01 in Snow Light Snow
2:30 AM 24.1 °F 10.6 °F 21.9 °F 91% 30.11 in 3.0 mi North 17.3 mph - 0.01 in   Overcast
2:34 AM 24.1 °F 9.8 °F 21.0 °F 88% 30.12 in 2.5 mi North 19.6 mph - 0.01 in   Overcast
2:39 AM 24.1 °F 10.6 °F 21.0 °F 88% 30.13 in 3.0 mi North 17.3 mph - 0.01 in   Overcast
2:50 AM 24.8 °F 12.9 °F 21.2 °F 86% 30.11 in 3.0 mi North 13.8 mph - 0.01 in   Overcast
2:52 AM 24.1 °F 10.6 °F 21.0 °F 88% 30.14 in 3.0 mi North 17.3 mph - 0.01 in   Overcast
3:04 AM 23.0 °F 9.6 °F 19.9 °F 88% 30.12 in 2.5 mi NNE 16.1 mph - 0.00 in   Overcast
3:12 AM 23.0 °F 8.3 °F 19.9 °F 88% 30.13 in 3.0 mi North 19.6 mph - 0.00 in Rain Light Freezing Rain
3:48 AM 21.2 °F 8.9 °F 17.6 °F 86% 30.14 in 3.0 mi NNE 12.7 mph - 0.01 in Snow Light Snow
3:52 AM 21.0 °F 8.6 °F 18.0 °F 88% 30.16 in 3.0 mi NNE 12.7 mph - 0.01 in Snow Light Snow
3:58 AM 21.0 °F 9.3 °F 18.0 °F 88% 30.15 in 1.8 mi NNE 11.5 mph - 0.01 in   Overcast
4:07 AM 21.0 °F 9.3 °F 18.0 °F 88% 30.16 in 1.2 mi North 11.5 mph - 0.02 in Snow Light Snow
4:13 AM 21.0 °F 8.6 °F 18.0 °F 88% 30.17 in 0.8 mi North 12.7 mph - 0.02 in Snow Light Snow
4:20 AM 21.0 °F 8.1 °F 18.0 °F 88% 30.17 in 1.0 mi North 13.8 mph - 0.02 in   Overcast
4:44 AM 19.9 °F 5.7 °F 16.0 °F 85% 30.18 in 2.0 mi North 16.1 mph - 0.02 in   Overcast
4:52 AM 19.0 °F 4.0 °F 16.0 °F 88% 30.22 in 3.0 mi North 17.3 mph - 0.02 in   Overcast
5:13 AM 18.0 °F 1.3 °F 14.0 °F 84% 30.21 in 2.5 mi North 20.7 mph - 0.00 in   Overcast
5:28 AM 17.1 °F 0.1 °F 12.9 °F 84% 30.19 in 2.5 mi North 20.7 mph - 0.00 in   Overcast
5:37 AM 17.1 °F 0.6 °F 12.0 °F 81% 30.20 in 4.0 mi North 19.6 mph - 0.00 in   Haze
5:52 AM 16.0 °F 0.1 °F 12.0 °F 84% 30.26 in 3.0 mi NNE 17.3 mph - 0.00 in   Overcast
5:56 AM 16.0 °F 1.7 °F 12.0 °F 84% 30.22 in 1.8 mi North 13.8 mph - 0.00 in Snow Light Snow
6:03 AM 16.0 °F 0.1 °F 12.0 °F 84% 30.21 in 0.8 mi North 17.3 mph 24.2 mph 0.00 in Snow Light Snow
6:11 AM 16.0 °F 1.1 °F 12.0 °F 84% 30.22 in 1.0 mi North 15.0 mph - 0.00 in Snow Light Snow
6:18 AM 16.0 °F 1.1 °F 12.0 °F 84% 30.22 in 0.8 mi North 15.0 mph - 0.00 in Snow Light Snow
6:23 AM 15.1 °F -0.6 °F 10.9 °F 84% 30.22 in 1.0 mi NNE 16.1 mph - 0.00 in Snow Light Snow
6:31 AM 15.1 °F -1.1 °F 10.9 °F 84% 30.23 in 2.0 mi NNE 17.3 mph - 0.00 in Snow Light Snow
6:52 AM 15.1 °F -1.1 °F 10.9 °F 84% 30.29 in 3.0 mi North 17.3 mph 23.0 mph 0.00 in Snow Light Snow
7:52 AM 14.0 °F -3.4 °F 9.0 °F 80% 30.32 in 6.0 mi North 19.6 mph - 0.00 in Snow Light Snow
8:02 AM 14.0 °F -3.9 °F 9.0 °F 80% 30.27 in 7.0 mi North 20.7 mph 25.3 mph 0.00 in Snow Light Snow
8:21 AM 12.9 °F -3.4 °F 9.0 °F 84% 30.29 in 2.5 mi North 16.1 mph - 0.00 in Snow Light Snow
8:49 AM 12.2 °F -4.3 °F 8.6 °F 85% 30.29 in 3.0 mi North 16.1 mph 27.6 mph 0.00 in Snow Light Snow
8:52 AM 12.9 °F -3.4 °F 9.0 °F 84% 30.34 in 2.5 mi North 16.1 mph - 0.00 in Snow Light Snow
8:59 AM 12.9 °F -3.9 °F 9.0 °F 84% 30.28 in 1.8 mi North 17.3 mph - 0.00 in Snow Light Snow
9:06 AM 12.0 °F -4.5 °F 8.1 °F 84% 30.28 in 2.5 mi North 16.1 mph - 0.00 in Snow Light Snow
9:17 AM 12.0 °F -5.6 °F 8.1 °F 84% 30.29 in 2.5 mi North 18.4 mph - 0.00 in Snow Light Snow
9:52 AM 12.0 °F -4.0 °F 8.1 °F 84% 30.35 in 1.8 mi North 15.0 mph - 0.00 in Snow Light Snow
10:12 AM 12.0 °F -5.6 °F 7.0 °F 80% 30.29 in 2.0 mi North 18.4 mph - 0.00 in Snow Light Snow
10:29 AM 12.0 °F -4.5 °F 7.0 °F 80% 30.31 in 1.8 mi North 16.1 mph 23.0 mph 0.00 in Snow Light Snow
10:39 AM 12.0 °F -5.1 °F 7.0 °F 80% 30.30 in 2.5 mi North 17.3 mph - 0.00 in Snow Light Snow
10:52 AM 12.0 °F -4.0 °F 7.0 °F 80% 30.35 in 2.5 mi NNE 15.0 mph - 0.00 in Snow Light Snow
11:06 AM 12.0 °F -6.5 °F 7.0 °F 80% 30.28 in 2.0 mi NNE 20.7 mph 26.5 mph 0.00 in Snow Light Snow
11:17 AM 12.0 °F -5.1 °F 7.0 °F 80% 30.29 in 4.0 mi NNE 17.3 mph - 0.00 in Snow Light Snow
11:52 AM 12.9 °F -3.4 °F 7.0 °F 77% 30.36 in 2.5 mi NNE 16.1 mph - 0.00 in Snow Light Snow
12:11 PM 12.9 °F -0.9 °F 7.0 °F 77% 30.31 in 3.0 mi North 11.5 mph - 0.00 in Snow Light Snow
12:18 PM 12.9 °F -2.2 °F 7.0 °F 77% 30.30 in 1.8 mi North 13.8 mph - 0.00 in Snow Light Snow
12:39 PM 12.9 °F -5.3 °F 7.0 °F 77% 30.24 in 2.5 mi NNE 20.7 mph - 0.00 in Snow Light Snow
12:52 PM 12.9 °F -4.9 °F 7.0 °F 77% 30.30 in 2.5 mi NNE 19.6 mph - 0.00 in Snow Light Snow
1:02 PM 12.9 °F -3.9 °F 7.0 °F 77% 30.25 in 3.0 mi NNE 17.3 mph - 0.00 in Snow Light Snow
1:28 PM 12.9 °F -5.3 °F 7.0 °F 77% 30.23 in 2.5 mi North 20.7 mph - 0.00 in Snow Light Snow
1:42 PM 12.9 °F -4.9 °F 7.0 °F 77% 30.25 in 3.0 mi North 19.6 mph - 0.00 in Snow Light Snow
1:52 PM 12.0 °F -6.5 °F 7.0 °F 80% 30.32 in 2.0 mi North 20.7 mph - 0.00 in Snow Light Snow
2:08 PM 12.0 °F -6.0 °F 7.0 °F 80% 30.25 in 3.0 mi NNE 19.6 mph - 0.00 in Snow Light Snow
2:21 PM 12.0 °F -6.9 °F 6.1 °F 77% 30.23 in 2.5 mi North 21.9 mph 28.8 mph 0.00 in Snow Light Snow
2:52 PM 12.0 °F -6.5 °F 7.0 °F 80% 30.28 in 3.0 mi North 20.7 mph 27.6 mph 0.00 in Snow Light Snow
3:14 PM 12.0 °F -5.1 °F 7.0 °F 80% 30.25 in 2.0 mi North 17.3 mph 26.5 mph 0.00 in Snow Light Snow
3:38 PM 12.0 °F -4.0 °F 6.1 °F 77% 30.27 in 4.0 mi North 15.0 mph - 0.00 in Snow Light Snow
3:52 PM 10.9 °F -7.0 °F 5.0 °F 77% 30.32 in 5.0 mi North 18.4 mph - 0.00 in Snow Light Snow
4:49 PM 10.4 °F -9.5 °F 5.0 °F 79% 30.25 in 4.0 mi NNE 23.0 mph 28.8 mph 0.00 in Snow Light Snow
4:52 PM 10.9 °F -7.9 °F 5.0 °F 77% 30.32 in 5.0 mi NNE 20.7 mph 28.8 mph 0.00 in Snow Light Snow
5:15 PM 10.9 °F -5.9 °F 5.0 °F 77% 30.28 in 4.0 mi North 16.1 mph - 0.00 in Snow Light Snow
5:52 PM 10.0 °F -8.1 °F 5.0 °F 80% 30.31 in 2.0 mi North 18.4 mph - 0.01 in Snow Light Snow
6:23 PM 10.0 °F -10.0 °F 3.9 °F 76% 30.24 in 1.8 mi North 23.0 mph 26.5 mph 0.03 in Snow Light Snow
6:52 PM 9.0 °F -9.0 °F 3.9 °F 80% 30.32 in 1.5 mi North 17.3 mph 24.2 mph 0.04 in Snow Light Snow
7:00 PM 9.0 °F -9.0 °F 3.9 °F 80% 30.26 in 3.0 mi North 17.3 mph - 0.00 in Snow Light Snow
7:10 PM 9.0 °F -9.5 °F 3.0 °F 77% 30.26 in 2.5 mi North 18.4 mph - 0.00 in Snow Light Snow
7:20 PM 8.1 °F -11.2 °F 3.0 °F 80% 30.26 in 1.2 mi North 19.6 mph 26.5 mph 0.02 in Snow Light Snow
7:52 PM 8.1 °F -11.7 °F 1.9 °F 76% 30.34 in 1.8 mi North 20.7 mph - 0.02 in Snow Light Snow
8:02 PM 8.1 °F -11.2 °F 1.9 °F 76% 30.27 in 3.0 mi North 19.6 mph - 0.00 in   Overcast
8:04 PM 8.1 °F -10.7 °F 1.9 °F 76% 30.27 in 1.8 mi North 18.4 mph - 0.00 in   Overcast
8:14 PM 7.0 °F -13.6 °F 1.0 °F 77% 30.27 in 3.0 mi North 21.9 mph - 0.00 in Snow Blowing Snow
8:52 PM 7.0 °F -13.1 °F -0.0 °F 73% 30.35 in 5.0 mi North 20.7 mph 27.6 mph 0.00 in Snow Light Snow
9:25 PM 6.1 °F -12.8 °F -0.0 °F 76% 30.31 in 5.0 mi North 17.3 mph - 0.01 in Snow Light Snow
9:36 PM 6.1 °F -12.8 °F -0.0 °F 76% 30.32 in 5.0 mi North 17.3 mph - 0.01 in Snow Light Snow
9:52 PM 6.1 °F -12.8 °F -0.0 °F 76% 30.38 in 7.0 mi North 17.3 mph - 0.01 in Snow Light Snow
10:52 PM 5.0 °F -13.6 °F -0.9 °F 76% 30.38 in 5.0 mi North 16.1 mph - 0.00 in Snow Light Snow
11:47 PM 5.0 °F -13.6 °F -0.4 °F 78% 30.33 in 2.5 mi North 16.1 mph - 0.00 in Snow Light Snow
11:52 PM 5.0 °F -14.2 °F -0.9 °F 76% 30.41 in 2.5 mi North 17.3 mph 23.0 mph 0.00 in Snow Light Snow
11:59 PM 5.0 °F -13.0 °F -0.9 °F 76% 30.33 in 3.0 mi North 15.0 mph 23.0 mph 0.00 in Snow Light Snow